Regional Weather Roundup
Issued by NWS

Home | Current Version | Previous Version | Graphics & Text | Print | Product List | Glossary On
Versions: 1 2 3 4 5 6 7 8 9 10 11 12 13 14 15 16 17 18 19 20 21 22 23 24 25 26 27 28 29 30 31 32 33 34 35 36 37 38 39 40 41 42 43 44 45 46 47 48 49 50
000
ASUS43 KLOT 300906
RWRIL

ILLINOIS REGIONAL WEATHER ROUNDUP
NATIONAL WEATHER SERVICE CHICAGO/ROMEOVILLE IL
400 AM CDT TUE SEP 30 2014

NOTE: "FAIR" INDICATES FEW OR NO CLOUDS BELOW 12,000 FEET WITH NO
SIGNIFICANT WEATHER AND/OR OBSTRUCTIONS TO VISIBILITY.

* THESE STATIONS ARE NOT UNDER NWS QUALITY CONTROL. THEY ALSO MAY NOT
  REPORT WEATHER SUCH AS PRECIPITATION OR FOG.

ILZ001-002-007-009-015-016-024-301000-
NORTHWEST ILLINOIS

CITY           SKY/WX    TMP DP  RH WIND       PRES   REMARKS
MOLINE         NOT AVBL
SAVANNA*       CLOUDY    54  47  79 NE8       30.05S
$$

ILZ003-004-008-010-011-017-018-301000-
NORTH CENTRAL ILLINOIS

CITY           SKY/WX    TMP DP  RH WIND       PRES   REMARKS
ROCKFORD       DRIZZLE   51  47  86 NE10      30.08S
FREEPORT*      CLOUDY    50  46  87 NE7       30.07S
ROCHELLE*      CLOUDY    51  47  84 NE7       30.06S
DE KALB*       CLOUDY    48  44  85 NE10      30.06S
PERU*          CLOUDY    55  52  87 NE10      30.03S
$$

ILZ005-006-012>014-019>023-301000-
NORTHEAST ILLINOIS

CITY           SKY/WX    TMP DP  RH WIND       PRES   REMARKS
CHICAGO-OHARE  CLOUDY    51  46  83 N14       30.04S
CHICAGO-MIDWAY MOCLDY    55  48  77 N14       30.03R
AURORA         CLOUDY    53  46  77 N12       30.04S
LANSING*       CLOUDY    54  49  83 NE10G21   30.02R
JOLIET*        CLOUDY    53  48  82 NE13      30.03R
WAUKEGAN       CLOUDY    46  44  93 N10       30.05F FOG
DUPAGE AIRPORT CLOUDY    51  45  79 NE14      30.04R
KANKAKEE*      CLOUDY    55  51  86 N7        30.02S
WHEELING       CLOUDY    51  46  83 N8        30.05F
MORRIS*        CLOUDY    55  51  86 NE5       30.02S
ROMEOVILLE*    CLOUDY    53  47  81 NE16      30.03S
NORTHERLY ISL    N/A     53  48  83 N17         N/A
$$

LMZ740>746-301000-
SOUTHERN LAKE MICHIGAN

STATION/POSITION SKY/WX   TEMP    WIND        PRES    VSBY  WAVE
                          AIR SEA DIR/SP/G                  HT/PER
                          (F)     (DEG/KT/KT) (MB)    (MI)  (FT/S)
SOUTHERN BUOY              53 61  350/ 19/ 23 1016.8S         7/ 8
WAUKEGAN HARBOR                   350/ 11/ 14   N/A
HARRISON CRIB              53      10/ 21/ 23   N/A
BURNHAM HARBOR             53     360/ 14/ 21   N/A
CALUMET HARBOR             54      10/ 12/ 17 1015.7F
MICHIGAN CITY              54     350/ 25/ 29   N/A
MICHIGAN CITY 6N           55 65   10/ 17/ 23   N/A           8/ 2
ST. JOSEPH                 54 63  360/ 17/ 23   N/A           7/ 2
$$

ILZ025>027-034>036-040-047-049-050-058-095>099-301000-
WEST-CENTRAL ILLINOIS

CITY           SKY/WX    TMP DP  RH WIND       PRES   REMARKS
QUINCY         CLEAR     62  58  86 CALM      29.96S
GALESBURG*     CLOUDY    56  54  92 NE10      30.01R
MACOMB*        MOCLDY    58  57  96 NE9       30.01R FOG
JACKSONVILLE*  CLEAR     61  59  91 CALM      29.96S
PITTSFIELD*    CLEAR     59  56  88 W3        29.96S
$$

ILZ028>032-037-038-041>044-048-051>054-059>061-301000-
CENTRAL ILLINOIS

CITY           SKY/WX    TMP DP  RH WIND       PRES   REMARKS
PONTIAC        CLOUDY    59  55  88 NE7       30.01R
DECATUR        FOG       59  58  96 NE9       29.97R VSB 3/4
PEORIA         CLOUDY    61  55  81 NE10      30.00R HAZE
LACON*         CLOUDY    56  52  85 NE6       30.01R
LINCOLN*       CLOUDY    60  59  95 NE7       29.96R FOG
SPRINGFIELD    CLEAR     60  57  89 N5        29.97R
TAYLORVILLE    CLEAR     55  54  94 SW3       29.95S
$$

ILZ033-039-045-046-055>057-062-063-301000-
EAST-CENTRAL ILLINOIS

CITY           SKY/WX    TMP DP  RH WIND       PRES   REMARKS
CHAMPAIGN      CLOUDY    59  57  94 E13       29.98R FOG
DANVILLE*      CLOUDY    57  56  94 NE9       29.95S
RANTOUL*       CLOUDY    60  55  85 NE10      29.99S
MATTOON        CLEAR     58  53  84 NW5       29.94R
PARIS*         FOG       58  58  99 N7        29.97R VSB 1/2
$$

ILZ079-100>102-301000-
SOUTHWEST ILLINOIS

CITY           SKY/WX    TMP DP  RH WIND       PRES   REMARKS
ALTON          CLEAR     57  56  95 CALM      29.96S FOG
BELLEVILLE     CLEAR     58  58  99 W2        29.95S
CAHOKIA*       CLEAR     61  58  90 SW6       29.95F
SPARTA*        CLEAR     59  56  90 CALM      29.96S
$$

ILZ064>066-069>071-074>076-080>082-084>086-088>090-092>094-301000-
SOUTH-CENTRAL ILLINOIS

CITY           SKY/WX    TMP DP  RH WIND       PRES   REMARKS
CARBONDALE     CLEAR     56  55  97 CALM      29.95S FOG
CAIRO*         FOG       56  54  92 CALM      29.94S VSB 3/4
EFFINGHAM*     CLEAR     56  54  90 CALM      29.94S
MARION         CLEAR     59  59 100 CALM      29.96R FOG
CENTRALIA*     CLEAR     55  53  91 CALM      29.95S
SALEM*         CLEAR     59  58  95 CALM      29.95S
METROPOLIS*    CLEAR     54  54 100 CALM      29.93S
$$

ILZ067-068-072-073-078-083-087-091-301000-
SOUTHEAST ILLINOIS

CITY           SKY/WX    TMP DP  RH WIND       PRES   REMARKS
LAWRENCEVILLE  CLEAR     57  54  89 CALM      29.94S
FLORA*         CLEAR     55  54  94 CALM      29.94S
FAIRFIELD*     CLEAR     55  54  94 CALM      29.94S
HARRISBURG*    CLEAR     56  56 100 CALM      29.96R
ROBINSON*      CLEAR     55  54  97 CALM      29.94S
CARMI*         CLEAR     55  55  98 CALM      29.94S FOG
$$

ABBREVIATIONS USED IN REMARKS
   TC - TEMPERATURE IN CELSIUS
  WCI - WIND CHILL INDEX
   HX - HEAT INDEX
  VSB - VISIBILITY
$$



USA.gov is the U.S. government's official web portal to all federal, state and local government web resources and services.